SCP
0 0 0 0 0 0 0 0 0 0 0 0 0 0 0 0 0 0 0 0 0 0 0 0 0 0 0 0 0 0 0 0 0 0 0 0 0 0 0 0 0 0 0 0
0 0 0 0 0 0 0 0 0 0 0 0 0 0 0 0 0 0 0 0 0 0 0 0 0 0 0 0 0 0 0 0 0 0 0 0 0 0 0 0 0 0 0 0
0 0 0 0 0 0 0 0 0 0 0 0 0 0 0 0 0 0 0 0 0 0 0 0 0 0 0 0 0 0 0 0 0 0 0 0 0 0 0 0 0 0 0 0
0 0 0 0 0 0 0 0 0 0 0 0 0 0 0 0 0 0 0 0 0 0 0 0 0 0 0 0 0 0 0 0 0 0 0 0 0 0 0 0 0 0 0 0
0 0 0 0 0 0 0 0 0 0 0 0 0 0 0 0 0 0 0 0 0 0 0 0 0 0 0 0 0 0 0 0 0 0 0 0 0 0 0 0 0 0 0 0
0 0 0 0 0 0 0 0 0 0 0 0 0 0 0 0 0 0 0 0 0 0 0 0 0 0 0 0 0 0 0 0 0 0 0 0 0 0 0 0 0 0 0 0
0 0 0 0 0 0 0 0 0 0 0 0 0 0 0 0 0 0 0 0 0 0 0 0 0 0 0 0 0 0 0 0 0 0 0 0 0 0 0 0 0 0 0 0
0 0 0 0 0 0 0 0 0 0 0 0 0 0 0 0 0 0 0 0 0 0 0 0 0 0 0 0 0 0 0 0 0 0 0 0 0 0 0 0 0 0 0 0
0 0 0 0 0 0 0 0 0 0 0 0 0 0 0 0 0 0 0 0 0 0 0 0 0 0 0 0 0 0 0 0 0 0 0 0 0 0 0 0 0 0 0 0
0 0 0 0 0 0 0 0 0 0 0 0 0 0 0 0 0 0 0 0 0 0 0 0 0 0 0 0 0 0 0 0 0 0 0 0 0 0 0 0 0 0 0 0
0 0 0 0 0 0 0 0 0 0 0 0 0 0 0 0 0 0 0 0 0 0 0 0 0 0 0 0 0 0 0 0 0 0 0 0 0 0 0 0 0 0 0 0
0 0 0 0 0 0 0 0 0 0 0 0 0 0 0 0 0 0 0 0 0 0 0 0 0 0 0 0 0 0 0 0 0 0 0 0 0 0 0 0 0 0 0 0
0 0 0 0 0 0 0 0 0 0 0 0 0 0 0 0 0 0 0 0 0 0 0 0 0 0 0 0 0 0 0 0 0 0 0 0 0 0 0 0 0 0 0 0
0 0 0 0 0 0 0 0 0 0 0 0 0 0 0 0 0 0 0 0 0 0 0 0 0 0 0 0 0 0 0 0 0 0 0 0 0 0 0 0 0 0 0 0
0 0 0 0 0 0 0 0 0 0 0 0 0 0 0 0 0 0 0 0 0 0 0 0 0 0 0 0 0 0 0 0 0 0 0 0 0 0 0 0 0 0 0 0
0 0 0 0 0 0 0 0 0 0 0 0 0 0 0 0 0 0 0 0 0 0 0 0 0 0 0 0 0 0 0 0 0 0 0 0 0 0 0 0 0 0 0 0
0 0 0 0 0 0 0 0 0 0 0 0 0 0 0 0 0 0 0 0 0 0 0 0 0 0 0 0 0 0 0 0 0 0 0 0 0 0 0 0 0 0 0 0
0 0 0 0 0 0 0 0 0 0 0 0 0 0 0 0 0 0 0 0 0 0 0 0 0 0 0 0 0 0 0 0 0 0 0 0 0 0 0 0 0 0 0 0
0 0 0 0 0 0 0 0 0 0 0 0 0 0 0 0 0 0 0 0 0 0 0 0 0 0 0 0 0 0 0 0 0 0 0 0 0 0 0 0 0 0 0 0
0 0 0 0 0 0 0 0 0 0 0 0 0 0 0 0 0 0 0 0 0 0 0 0 0 0 0 0 0 0 0 0 0 0 0 0 0 0 0 0 0 0 0 0
0 0 0 0 0 0 0 0 0 0 0 0 0 0 0 0 0 0 0 0 0 0 0 0 0 0 0 0 0 0 0 0 0 0 0 0 0 0 0 0 0 0 0 0
0 0 0 0 0 0 0 0 0 0 0 0 0 0 0 0 0 0 0 0 0 0 0 0 0 0 0 0 0 0 0 0 0 0 0 0 0 0 0 0 0 0 0 0
0 0 0 0 0 0 0 0 0 0 0 0 0 0 0 0 0 0 0 0 0 0 0 0 0 0 0 0 0 0 0 0 0 0 0 0 0 0 0 0 0 0 0 0
0 0 0 0 0 0 0 0 0 0 0 0 0 0 0 0 0 0 0 0 0 0 0 0 0 0 0 0 0 0 0 0 0 0 0 0 0 0 0 0 0 0 0 0
0 0 0 0 0 0 0 0 0 0 0 0 0 0 0 0 0 0 0 0 0 0 0 0 0 0 0 0 0 0 0 0 0 0 0 0 0 0 0 0 0 0 0 0
0 0 0 0 0 0 0 0 0 0 0 0 0 0 0 0 0 0 0 0 0 0 0 0 0 0 0 0 0 0 0 0 0 0 0 0 0 0 0 0 0 0 0 0
0 0 0 0 0 0 0 0 0 0 0 0 0 0 0 0 0 0 0 0 0 0 0 0 0 0 0 0 0 0 0 0 0 0 0 0 0 0 0 0 0 0 0 0
Wind_Speed
7 5 4 6 8 8 10 9 10 12 11 15 7 10 10 10 9 8 7 6 6 4 3 3 4 5 5 6 6 6 7 7 8 9 9 9 10 10 11 11 13 13 14 15
6 2 3 7 10 9 10 8 10 10 18 9 2 3 8 10 12 10 8 8 6 5 4 4 4 5 5 5 6 6 6 7 8 9 9 9 9 10 10 11 11 12 13 14
5 5 5 10 9 10 8 10 10 11 12 2 3 7 12 14 13 11 9 8 7 6 5 4 4 4 4 5 5 5 6 7 8 8 9 9 10 10 10 10 10 11 12 13
3 7 6 8 1 7 7 10 11 11 9 6 6 4 5 8 12 10 9 9 7 6 5 4 3 3 4 4 4 5 6 6 7 7 8 9 8 9 9 7 8 8 9 11
1 3 12 11 3 6 5 11 9 12 11 3 4 2 3 7 9 10 9 8 7 6 5 4 3 3 3 4 4 5 6 7 7 7 7 8 8 8 7 7 7 7 8 10
4 2 9 8 2 4 2 9 7 9 7 8 9 3 7 11 10 9 8 7 6 5 5 4 3 2 2 3 4 5 6 7 7 6 7 7 7 7 6 7 7 8 9 9
5 7 14 8 5 5 3 10 4 8 10 13 14 8 3 12 10 9 8 7 7 6 5 5 3 2 2 3 4 5 6 6 6 6 7 7 6 6 7 8 8 8 9 9
6 6 15 7 10 12 14 3 5 7 9 12 9 4 7 11 12 12 10 8 7 6 6 4 3 3 3 4 5 5 5 6 7 7 7 7 6 7 7 7 7 7 7 8
14 14 7 12 14 11 5 6 7 7 8 11 9 8 10 10 11 11 11 9 7 7 6 4 4 4 4 4 4 5 5 6 7 7 6 6 6 7 7 6 6 7 6 7
8 16 11 12 12 10 9 9 7 8 9 14 11 12 12 12 11 11 10 9 7 7 6 6 5 5 5 4 4 4 6 6 6 6 7 6 6 5 6 6 7 7 5 6
10 13 10 11 14 16 11 8 7 7 10 14 14 13 14 13 13 12 11 8 8 8 7 7 5 5 5 4 3 4 5 6 6 6 6 6 7 5 7 6 9 9 6 6
14 12 9 10 5 7 10 12 12 11 9 9 12 15 15 13 12 11 10 9 8 8 8 6 6 5 5 4 3 3 5 5 5 5 6 6 7 8 11 12 17 16 15 14
14 7 8 8 3 6 9 11 12 14 14 12 11 13 15 10 11 11 10 11 11 10 8 6 6 5 5 4 3 4 4 5 5 5 5 6 7 8 9 11 14 15 17 18
11 4 8 8 8 8 8 7 9 9 9 10 11 11 13 9 10 13 13 13 10 8 7 7 6 6 5 4 4 4 4 6 6 4 4 5 5 6 7 9 10 8 12 18
14 14 14 6 3 5 6 7 9 10 9 9 9 12 15 14 15 15 11 10 9 8 7 7 7 7 5 4 4 4 3 3 4 3 3 4 5 5 6 7 8 9 8 11
7 9 10 9 10 9 9 11 13 15 14 14 13 14 14 13 12 11 11 12 11 12 10 9 9 6 6 5 4 3 3 6 5 3 3 4 4 5 5 6 7 7 8 9
8 11 11 12 14 14 16 16 16 16 16 17 16 14 12 11 10 11 12 12 10 9 9 9 8 6 6 5 4 3 2 3 6 4 3 4 4 4 4 5 6 7 7 10
18 20 16 14 12 15 17 16 14 15 16 16 14 14 16 17 17 15 13 11 8 6 7 8 7 6 6 5 4 3 2 2 2 2 3 3 3 3 4 5 6 7 7 9
21 21 17 15 12 13 15 16 17 15 14 15 17 18 18 16 14 12 12 12 12 12 10 9 14 10 7 8 7 4 3 2 2 2 3 5 4 4 4 4 5 6 7 7
18 17 16 13 12 12 14 13 14 14 15 16 17 16 15 14 13 13 14 14 13 9 7 10 11 9 8 8 9 4 4 4 3 2 2 2 3 4 4 5 5 6 6 7
18 16 15 15 14 13 13 15 16 17 17 18 19 19 17 15 14 14 14 12 11 9 9 14 10 8 8 8 10 5 5 4 3 3 2 2 3 4 4 5 5 6 6 7
17 16 17 15 14 13 12 13 15 16 17 17 16 15 15 15 15 13 12 9 9 17 11 8 8 12 12 12 6 6 5 5 4 3 3 3 3 3 4 4 5 6 6 6
14 13 13 14 14 11 11 13 15 17 18 19 19 19 18 16 14 14 12 10 8 17 13 9 13 18 19 11 6 7 6 6 5 4 4 3 3 3 3 4 5 5 5 6
6 6 7 7 9 11 15 15 14 12 13 14 15 16 16 13 11 10 5 15 20 18 12 14 21 22 20 8 7 7 6 6 5 5 4 4 3 3 3 4 4 4 5 7
4 5 8 11 13 12 12 12 12 11 12 10 11 12 11 10 10 11 9 12 21 20 11 15 22 22 13 7 8 8 7 6 6 5 5 4 4 4 3 3 4 4 5 6
4 5 7 9 7 6 8 11 11 11 12 11 11 11 10 7 7 8 9 11 14 18 13 10 11 15 9 9 9 8 7 7 7 6 6 5 5 4 4 4 5 4 5 6
3 3 4 5 5 7 9 11 12 13 14 13 13 12 12 11 10 10 11 11 11 11 10 9 9 9 9 9 9 8 7 6 6 6 5 5 4 4 4 4 4 4 4 6
Wind_Direction
258 261 238 244 232 199 198 207 216 246 252 270 252 216 196 175 166 169 181 189 193 201 229 267 287 296 302 310 320 329 330 330 327 324 324 326 330 332 333 337 341 339 341 342
293 227 251 264 244 218 222 224 238 265 274 270 290 147 158 170 176 185 192 193 193 199 214 245 269 287 304 311 318 326 328 325 324 328 329 331 332 334 337 338 337 338 340 341
284 301 318 279 238 188 208 212 200 228 250 185 206 196 188 186 187 190 189 188 191 197 210 230 249 272 291 301 312 325 325 321 323 325 328 329 333 337 337 333 334 336 336 339
307 353 280 248 145 177 215 244 216 240 256 213 220 199 192 181 183 185 182 182 185 188 199 216 235 265 285 302 318 325 323 319 319 322 323 323 328 332 328 323 328 329 328 334
92 309 284 293 229 181 206 277 223 226 250 156 108 72 261 203 185 181 176 173 177 181 189 200 228 259 293 312 322 325 320 316 313 313 317 321 325 324 318 320 320 323 327 330
137 219 256 256 159 159 100 282 244 200 197 155 144 190 246 182 170 161 158 158 165 170 179 201 221 240 282 306 315 314 309 306 306 308 314 313 314 313 312 314 320 327 327 327
177 228 263 252 150 140 187 252 217 184 179 169 190 205 185 151 153 153 154 158 162 170 188 204 208 216 264 288 292 294 300 303 305 308 308 304 312 308 312 320 323 318 316 317
163 203 256 194 149 189 218 213 181 190 183 186 192 142 143 154 156 157 158 160 166 177 196 205 202 207 253 272 279 296 303 305 306 306 307 320 315 308 310 313 314 310 308 314
192 217 236 177 202 218 195 201 204 196 190 172 165 171 164 165 164 166 167 170 172 181 193 210 210 208 241 262 289 305 309 306 304 306 304 307 306 304 309 308 308 310 312 319
245 261 249 226 238 243 214 216 209 189 173 170 173 172 169 168 171 172 173 175 172 177 194 212 215 219 232 262 287 300 304 305 304 305 306 309 310 308 308 307 306 306 317 320
251 269 291 263 231 234 224 213 196 180 178 180 170 170 173 174 178 179 179 174 176 186 198 208 208 223 237 251 273 294 301 302 307 309 305 308 313 307 309 301 315 333 327 314
234 227 211 249 233 200 197 204 193 177 178 181 178 175 173 177 176 175 176 172 179 191 201 204 204 222 235 242 251 277 301 309 309 308 311 316 315 317 322 329 332 339 341 342
234 238 219 250 239 188 201 203 186 184 180 180 179 175 172 168 171 172 174 179 188 194 198 195 201 220 229 231 245 260 280 298 302 310 315 319 323 326 326 330 336 341 345 345
239 244 269 244 228 209 201 185 173 180 181 175 168 167 168 159 164 177 186 189 187 185 188 191 202 221 222 220 239 260 275 295 306 298 304 309 313 318 323 328 330 332 338 343
229 217 231 242 210 179 165 151 164 180 176 169 165 167 169 172 179 187 183 174 173 182 192 194 207 221 208 209 231 254 276 280 285 293 304 308 311 317 323 327 328 329 331 338
221 222 231 232 225 195 177 183 190 193 186 179 178 181 182 180 176 171 170 171 176 194 198 198 210 210 195 202 224 245 264 300 318 323 320 318 318 323 329 330 330 331 334 332
209 233 220 225 222 207 202 200 200 193 186 186 187 177 166 161 163 174 181 185 190 193 191 197 204 194 190 195 206 224 244 288 318 327 311 305 305 314 318 321 323 327 329 330
221 235 224 213 211 207 208 205 201 191 189 187 171 164 170 177 184 186 181 175 179 197 207 200 191 185 191 196 201 206 216 240 272 290 296 301 310 314 313 313 318 324 326 331
231 237 236 222 208 196 198 199 198 192 180 169 170 178 184 187 183 173 165 170 186 206 214 199 202 194 195 205 200 189 198 223 254 276 285 313 330 314 313 315 320 322 325 334
236 235 232 222 203 196 197 189 182 181 178 173 175 177 182 183 173 167 171 187 200 199 176 179 191 189 189 203 199 179 191 207 228 257 277 293 305 310 314 319 322 322 326 331
232 229 221 215 208 198 189 179 178 180 177 176 180 183 183 178 172 170 177 199 204 180 175 186 182 184 185 194 197 179 188 200 212 229 255 280 296 305 312 317 322 324 328 330
226 221 217 209 198 194 185 178 177 175 174 180 184 178 172 172 176 182 196 199 175 182 182 184 178 187 190 192 179 179 189 197 204 213 230 250 271 290 303 311 314 319 324 322
227 218 209 198 193 181 167 175 177 176 179 182 182 181 181 179 178 182 197 196 170 183 180 186 191 194 195 188 178 185 191 197 202 208 218 229 245 262 281 296 302 309 311 312
237 217 197 169 152 161 180 185 180 179 180 182 185 183 177 172 185 198 179 173 180 185 183 190 194 196 194 177 178 187 192 197 199 203 212 222 233 245 260 277 289 296 301 307
212 178 166 171 184 194 189 169 164 166 170 179 182 183 184 180 177 181 172 171 180 183 182 192 194 196 189 173 182 189 193 197 197 197 206 215 225 236 249 263 277 291 298 301
194 193 196 203 207 185 167 169 176 177 177 180 183 183 183 174 155 157 167 172 178 183 179 182 187 194 182 180 187 189 192 203 214 206 200 208 220 228 240 254 272 280 288 294
209 197 190 198 198 183 177 180 182 182 183 181 178 178 177 174 169 165 167 173 178 182 177 180 183 183 180 182 186 188 189 192 196 198 200 206 213 220 230 244 257 272 282 289